Location: Agua Amarilla
(10.0342°N, 66.8490°W)
Time: 04:05:36
(UTC+00:00)

Cosmos 1733 - Pass Details

Date: 26 June 2022
Orbit: 499 x 513 km, 82.5° (Epoch: 18 August)

Event Time Altitude Azimuth Distance (km) Brightness Sun altitude
Rises 23:02:41 0° 0° (N) 2,589 7.1 -3.3°
Reaches altitude 10° 23:04:49 10° 3° (N) 1,708 6.1 -3.8°
Maximum altitude 23:08:31 65° 86° (E) 557 3.2 -4.6°
Drops below altitude 10° 23:12:16 10° 168° (SSE) 1,719 5.5 -5.5°
Sets 23:14:24 0° 171° (S) 2,607 6.4 -5.9°
